This is the latest recevied weather packets stored in our database for station/object OE3FJB-25. If no packets are shown the sender has not sent any weather packets the latest 10 day(s).
| Time | Temp. | Humidity | Pressure | Rain* | Wind** | Luminosity | Snow |
|---|---|---|---|---|---|---|---|
| 1778007648 | 16.67° C | 99% | 1008.9 hPa | - | - | - | - |
| 1778007049 | 16.67° C | 99% | 1008.8 hPa | - | - | - | - |
| 1778006450 | 17.22° C | 99% | 1008.8 hPa | - | - | - | - |
| 1778005852 | 17.22° C | 99% | 1008.9 hPa | - | - | - | - |
| 1778005253 | 17.78° C | 99% | 1008.8 hPa | - | - | - | - |
| 1778004655 | 17.78° C | 99% | 1008.8 hPa | - | - | - | - |
| 1778004056 | 18.33° C | 99% | 1008.9 hPa | - | - | - | - |
| 1778003457 | 18.33° C | 99% | 1008.9 hPa | - | - | - | - |
| 1778002859 | 18.33° C | 99% | 1008.9 hPa | - | - | - | - |
| 1778002260 | 18.89° C | 99% | 1008.8 hPa | - | - | - | - |
| 1778001662 | 18.89° C | 96% | 1008.9 hPa | - | - | - | - |
| 1778001063 | 19.44° C | 71% | 1008.8 hPa | - | - | - | - |
| 1778000464 | 20° C | 62% | 1008.8 hPa | - | - | - | - |
| 1777999866 | 21.11° C | 55% | 1008.8 hPa | - | - | - | - |
| 1777999267 | 21.11° C | 54% | 1008.8 hPa | - | - | - | - |
| 1777998667 | 20.56° C | 54% | 1008.9 hPa | - | - | - | - |
| 1777998067 | 20.56° C | 53% | 1009 hPa | - | - | - | - |
| 1777997467 | 20.56° C | 52% | 1009.2 hPa | - | - | - | - |
| 1777996867 | 20.56° C | 53% | 1009.3 hPa | - | - | - | - |
| 1777996268 | 21.11° C | 55% | 1009.4 hPa | - | - | - | - |
| 1777995669 | 21.11° C | 54% | 1009.4 hPa | - | - | - | - |
| 1777995070 | 21.11° C | 57% | 1009.5 hPa | - | - | - | - |
| 1777994472 | 21.11° C | 61% | 1009.6 hPa | - | - | - | - |
| 1777993873 | 21.11° C | 62% | 1009.6 hPa | - | - | - | - |
| 1777993275 | 21.11° C | 62% | 1009.7 hPa | - | - | - | - |
* Rain since midnight (hover to see other rain measurements)
** Current wind speed in m/s (hover to see current wind gust speed)